Alice Springs, Australia

8:35 PM ACST on December 07, 2019 (GMT +0930)
Alice Springs

Weather History for YBAS - August, 2019

Change the Weather History Date:

Wednesday, August 28, 2019

  Actual Average Record
Temperature  
Mean Temperature 52 °F -  
Max Temperature 68 °F 79 °F 89 °F (2013)
Min Temperature 36 °F 50 °F 30 °F (2001)
Degree Days  
Heating Degree Days 13    
Growing Degree Days 2 (Base 50)    
Moisture  
Dew Point 20 °F    
Average Humidity 27    
Maximum Humidity 52    
Minimum Humidity 6    
Precipitation  
Precipitation 0.00 in 0.01 in - ()
Sea Level Pressure  
Sea Level Pressure 30.29 in    
Wind  
Wind Speed 6 mph ()    
Max Wind Speed 14 mph    
Max Gust Speed -    
Visibility 6.2 miles    
Events      
Averages and records for this station are not official NWS values.
T = Trace of Precipitation, MM = Missing Value Source: Averaged Metar Reports

Daily Weather History Graph

Daily Weather History Graph

Search for Another Location

Airport or City:

Astronomy

Aug. 28, 2019 Rise Set
Actual Time 6:49 AM ACST 6:22 PM ACST
Civil Twilight 6:27 AM ACST 6:44 PM ACST
Nautical Twilight 6:00 AM ACST 7:11 PM ACST
Astronomical Twilight 5:34 AM ACST 7:37 PM ACST
Moon 4:51 AM ACST (8/28) 3:57 PM ACST (8/28)
Length of Visible Light 12h 17m
Length of Day
11h 32m
Waning Crescent, 8% of the Moon is Illuminated
Aug 28
Waning Crescent
Aug 30
New
Sep 6
First Quarter
Sep 14
Full
Sep 22
Last Quarter

Hourly Weather History & Observations

Time (ACST) Temp. Windchill Dew Point Humidity Pressure Visibility Wind Dir Wind Speed Gust Speed Precip Events Conditions
12:00 AM 49 °F - 23 °F 23% 30.28 in - SE 6.9 mph - -   Clear
12:00 AM 50.0 °F - 23.0 °F 35% 30.30 in 6.2 mi SE 6.9 mph - N/A   Scattered Clouds
12:30 AM 47 °F - 23 °F 25% 30.29 in - SE 5.8 mph - -  
12:30 AM 48.2 °F - 23.0 °F 37% 30.30 in 6.2 mi SE 5.8 mph - N/A   Scattered Clouds
1:00 AM 46.4 °F - 21.2 °F 37% 30.30 in 6.2 mi Calm Calm - N/A   Scattered Clouds
1:30 AM 44.6 °F - 23.0 °F 43% 30.30 in 6.2 mi North 2.3 mph - N/A   Unknown
2:00 AM 44.6 °F - 23.0 °F 43% 30.27 in 6.2 mi Calm Calm - N/A   Unknown
2:30 AM 42.8 °F - 21.2 °F 42% 30.27 in 6.2 mi NW 1.2 mph - N/A   Unknown
3:00 AM 41 °F - 20 °F 30% 30.27 in - SSW 4.6 mph - -   Clear
3:00 AM 41.0 °F 38.0 °F 19.4 °F 42% 30.27 in 6.2 mi SSW 4.6 mph - N/A   Unknown
3:30 AM 40 °F - 20 °F 32% 30.27 in - Calm Calm - -  
3:30 AM 41.0 °F - 21.2 °F 45% 30.27 in 6.2 mi Calm Calm - N/A   Unknown
4:00 AM 41.0 °F - 21.2 °F 45% 30.27 in 6.2 mi West 1.2 mph - N/A   Unknown
4:30 AM 39.2 °F - 21.2 °F 49% 30.27 in 6.2 mi Calm Calm - N/A   Unknown
5:30 AM 40 °F - 22 °F 36% 30.29 in - West 4.6 mph - -  
5:30 AM 41.0 °F 38.0 °F 23.0 °F 49% 30.30 in 6.2 mi West 4.6 mph - N/A   Unknown
6:00 AM 39 °F - 21 °F 35% 30.30 in - West 5.8 mph - -   Clear
6:00 AM 39.2 °F 35.0 °F 21.2 °F 49% 30.30 in 6.2 mi West 5.8 mph - N/A   Unknown
6:30 AM 38 °F - 20 °F 35% 30.32 in - WSW 6.9 mph - -  
6:30 AM 37.4 °F 32.1 °F 19.4 °F 48% 30.33 in 6.2 mi WSW 6.9 mph - N/A   Unknown
7:00 AM 37.4 °F 32.8 °F 21.2 °F 52% 30.33 in 6.2 mi West 5.8 mph - N/A   Unknown
7:30 AM 41.0 °F 37.1 °F 23.0 °F 49% 30.36 in 6.2 mi WNW 5.8 mph - N/A   Unknown
8:30 AM 51 °F - 22 °F 20% 30.35 in - NNE 3.5 mph - -  
8:30 AM 51.8 °F - 23.0 °F 33% 30.36 in - NNE 3.5 mph - N/A   Clear
9:00 AM 54 °F - 24 °F 19% 30.35 in - East 8.1 mph - -   Clear
9:30 AM 57.2 °F - 24.8 °F 29% 30.36 in - ENE 11.5 mph - N/A   Clear
10:00 AM 59.0 °F - 24.8 °F 27% 30.36 in - East 12.7 mph - N/A   Clear
10:30 AM 59.0 °F - 24.8 °F 27% 30.33 in - East 13.8 mph - N/A   Clear
11:00 AM 60.8 °F - 24.8 °F 25% 30.33 in - East 6.9 mph - N/A   Clear
11:30 AM 62 °F - 22 °F 12% 30.31 in - ESE 13.8 mph - -  
11:30 AM 62.6 °F - 23.0 °F 22% 30.33 in - ESE 13.8 mph - N/A   Clear
12:00 PM 63 °F - 21 °F 10% 30.30 in - ESE 11.5 mph - -   Clear
12:00 PM 62.6 °F - 21.2 °F 20% 30.30 in - ESE 11.5 mph - N/A   Clear
12:30 PM 62.6 °F - 21.2 °F 20% 30.30 in - SE 10.4 mph - N/A   Clear
1:00 PM 64.4 °F - 19.4 °F 18% 30.30 in - East 12.7 mph - N/A   Clear
1:30 PM 66.2 °F - 19.4 °F 17% 30.27 in - SSE 6.9 mph - N/A   Clear
2:30 PM 67 °F - 18 °F 7% 30.25 in - SE 11.5 mph - -  
3:00 PM 66 °F - 17 °F 7% 30.24 in - SE 11.5 mph - -   Clear
3:00 PM 66.2 °F - 17.6 °F 15% 30.24 in - SE 11.5 mph - N/A   Clear
3:30 PM 67 °F - 16 °F 6% 30.23 in - ESE 12.7 mph - -  
4:00 PM 68.0 °F - 15.8 °F 13% 30.24 in - SE 12.7 mph - N/A   Clear
4:30 PM 66.2 °F - 17.6 °F 15% 30.24 in 6.2 mi ESE 12.7 mph - N/A   Unknown
5:30 PM 66.2 °F - 17.6 °F 15% 30.24 in 6.2 mi SE 12.7 mph - N/A   Unknown
6:00 PM 64 °F - 17 °F 8% 30.25 in - SE 8.1 mph - -   Clear
6:30 PM 62 °F - 15 °F 8% 30.24 in - ESE 8.1 mph - -  
6:30 PM 62.6 °F - 15.8 °F 16% 30.24 in 6.2 mi ESE 8.1 mph - N/A   Unknown
7:30 PM 57.2 °F - 15.8 °F 20% 30.27 in 6.2 mi ESE 8.1 mph - N/A   Unknown
8:00 PM 55.4 °F - 14.0 °F 20% 30.27 in 6.2 mi SE 6.9 mph - N/A   Unknown
8:30 PM 53 °F - 15 °F 12% 30.29 in - SE 8.1 mph - -  
8:30 PM 53.6 °F - 15.8 °F 22% 30.30 in 6.2 mi SE 8.1 mph - N/A   Unknown
9:00 PM 53 °F - 17 °F 13% 30.29 in - ESE 6.9 mph - -   Clear
9:00 PM 51.8 °F - 17.6 °F 26% 30.30 in 6.2 mi ESE 6.9 mph - N/A   Unknown
9:30 PM 52 °F - 17 °F 13% 30.29 in - ESE 5.8 mph - -  
9:30 PM 51.8 °F - 15.8 °F 24% 30.30 in 6.2 mi ESE 5.8 mph - N/A   Unknown
10:30 PM 48.2 °F - 15.8 °F 27% 30.30 in 6.2 mi SE 2.3 mph - N/A   Unknown
11:00 PM 46.4 °F - 15.8 °F 29% 30.30 in 6.2 mi Calm Calm - N/A   Unknown
11:30 PM 44 °F - 15 °F 19% 30.29 in - Calm Calm - -  
11:30 PM 44.6 °F - 15.8 °F 31% 30.30 in 6.2 mi Calm Calm - N/A   Unknown